EHI
0 0 0 0 0 0 0 0 0 0 0 0 0 0 0 0 0 0 0 0 0 0 0 0 0 0 0 0 0 0 0 0 0 0 0 0 0 0 0 0 0 1 1 1
0 0 0 0 0 0 0 0 0 0 0 0 0 0 0 0 0 0 0 0 0 0 0 0 0 0 0 0 0 0 0 0 0 0 0 0 0 0 0 0 0 0 0 0
0 0 0 0 0 0 0 0 0 0 0 0 0 0 0 0 0 0 0 0 0 0 0 0 0 0 0 0 0 0 0 0 0 0 0 0 0 0 0 0 0 0 0 0
0 0 0 0 0 0 0 0 0 0 0 0 0 0 0 0 0 0 0 0 0 0 0 0 0 0 0 0 0 0 0 0 0 0 0 0 0 0 0 0 0 0 0 0
0 0 0 0 0 0 0 0 0 0 0 0 0 0 0 0 0 0 0 0 0 0 0 0 0 0 0 0 0 0 0 0 0 0 0 0 0 0 0 0 0 0 0 0
0 0 0 0 0 0 0 0 0 0 0 0 0 0 0 0 0 0 0 0 0 0 0 0 0 0 0 0 0 0 0 0 0 0 0 0 0 0 0 0 0 0 0 0
0 0 0 0 0 0 0 0 0 0 0 0 0 0 0 0 0 0 0 0 0 0 0 0 0 0 0 0 0 0 0 0 0 0 0 0 0 0 0 0 0 0 0 0
0 0 0 0 0 0 0 0 0 0 0 0 0 0 0 0 0 0 0 0 0 0 0 0 0 0 0 0 0 0 0 0 0 0 0 0 0 0 0 0 0 0 0 0
0 0 0 0 0 0 0 0 0 0 0 0 0 0 0 0 0 0 0 0 0 0 0 0 0 0 0 0 0 0 0 0 0 0 0 0 0 0 0 0 0 0 0 0
0 0 0 0 0 0 0 0 0 0 0 0 0 0 0 0 0 0 0 0 0 0 0 0 0 0 0 0 0 0 0 0 0 0 0 0 0 0 0 0 0 0 0 0
0 0 0 0 0 0 0 0 0 0 0 0 0 0 0 0 0 0 0 0 0 0 0 0 0 0 0 0 0 0 0 0 0 0 0 0 0 0 0 0 0 0 0 0
0 0 0 0 0 0 0 0 0 0 0 0 0 0 0 0 0 0 0 0 0 0 0 0 0 0 0 0 0 0 0 0 0 0 0 0 0 0 0 0 0 0 0 0
0 0 0 0 0 0 0 0 0 0 0 0 0 0 0 0 0 0 0 0 0 0 0 0 0 0 0 0 0 0 0 0 0 0 0 0 0 0 0 0 0 0 0 0
0 0 0 0 0 0 0 0 0 0 0 0 0 0 0 0 0 0 0 0 0 0 0 0 0 0 0 0 0 0 0 0 0 0 0 0 0 0 0 0 0 0 0 0
0 0 0 0 0 0 0 0 0 0 0 0 0 0 0 0 0 0 0 0 0 0 0 0 0 0 0 0 0 0 0 0 0 0 0 0 0 0 0 0 0 0 0 0
0 0 0 0 0 0 0 0 0 0 0 0 0 0 0 0 0 0 0 0 0 0 0 0 0 0 0 0 0 0 0 0 0 0 0 0 0 0 0 0 0 0 0 0
0 0 0 0 0 0 0 0 0 0 0 0 0 0 0 0 0 0 0 0 0 0 0 0 0 0 0 0 0 0 0 0 0 0 0 0 0 0 0 0 0 0 0 0
0 0 0 0 0 0 0 0 0 0 0 0 0 0 0 0 0 0 0 0 0 0 0 0 0 0 0 0 0 0 0 0 0 0 0 0 0 0 0 0 0 0 0 0
0 0 0 0 0 0 0 0 0 0 0 0 0 0 0 0 0 0 0 0 0 0 0 0 0 0 0 0 0 0 0 0 0 0 0 0 0 0 0 0 0 0 0 0
0 0 0 0 0 0 0 0 0 0 0 0 0 0 0 0 0 0 0 0 0 0 0 0 0 0 0 0 0 0 0 0 0 0 0 0 0 0 0 0 0 0 0 0
0 0 0 0 0 0 0 0 0 0 0 0 0 0 0 0 0 0 0 0 0 0 0 0 0 0 0 0 0 0 0 0 0 0 0 0 0 0 0 0 0 0 0 0
0 0 0 0 0 0 0 0 0 0 0 0 0 0 0 0 0 0 0 0 0 0 0 0 0 0 0 0 0 0 0 0 0 0 0 0 0 0 0 0 0 0 0 0
0 0 0 0 0 0 0 0 0 0 0 0 0 0 0 0 0 0 0 0 0 0 0 0 0 0 0 0 0 0 0 0 0 0 0 0 0 0 0 0 0 0 0 0
0 0 0 0 0 0 0 0 0 0 0 0 0 0 0 0 0 0 0 0 0 0 0 0 0 0 0 0 0 0 0 0 0 0 0 0 0 0 0 0 0 0 0 0
0 0 0 0 0 0 0 0 0 0 0 0 0 0 0 0 0 0 0 0 0 0 0 0 0 0 0 0 0 0 0 0 0 0 0 0 0 0 0 0 0 0 0 0
0 0 0 0 0 0 0 0 0 0 0 0 0 0 0 0 0 0 0 0 0 0 0 0 0 0 0 0 0 0 0 0 0 0 0 0 0 0 0 0 0 0 0 0
0 0 0 0 0 0 0 0 0 0 0 0 0 0 0 0 0 0 0 0 0 0 0 0 0 0 0 0 0 0 0 0 0 0 0 0 0 0 0 0 0 0 0 0
Wind_Speed
3 2 2 2 1 2 4 6 9 11 13 12 11 11 11 13 15 16 15 15 15 15 15 16 16 16 16 16 16 16 16 17 17 17 17 16 16 16 16 16 16 16 16 16
3 2 3 5 4 3 4 7 10 12 12 9 8 10 12 14 16 16 16 16 17 17 17 17 17 16 16 16 16 16 16 17 17 17 17 17 16 16 15 15 15 15 15 15
5 1 7 7 5 4 5 8 10 12 13 13 13 14 14 15 14 15 16 17 18 18 17 16 16 16 16 16 16 16 16 17 17 17 17 16 16 16 16 15 15 14 15 15
5 4 6 5 4 2 7 10 9 10 12 13 13 13 14 11 11 14 16 17 17 17 17 17 17 16 16 16 16 16 16 16 16 17 17 16 15 15 15 13 13 12 13 14
6 8 7 5 4 2 7 11 6 9 12 13 13 14 8 7 11 14 16 16 16 17 17 17 17 16 16 16 16 16 16 15 16 16 16 16 16 15 13 12 12 11 11 12
6 9 8 4 6 1 6 6 4 8 11 12 13 12 10 13 15 15 15 15 15 16 16 16 15 16 16 16 16 16 16 15 16 16 16 16 15 14 12 11 11 11 11 10
9 9 4 7 5 4 7 9 8 9 9 11 11 11 14 16 15 14 15 16 16 16 15 14 15 15 15 15 15 15 16 16 16 16 15 15 13 12 11 10 10 9 10 9
5 7 1 9 4 4 7 5 6 7 8 9 11 13 14 14 14 15 15 16 16 14 14 14 14 14 15 15 15 15 15 15 16 15 14 11 11 11 10 9 9 8 8 8
4 4 5 5 2 2 3 6 6 7 8 9 12 13 14 14 14 14 15 15 14 15 15 14 13 13 14 14 14 14 14 15 15 14 12 11 10 10 9 7 6 6 6 6
7 6 4 5 5 5 5 5 5 5 7 9 11 13 13 13 13 14 14 14 14 15 15 15 14 13 13 13 13 13 14 14 13 12 11 11 8 7 6 5 5 5 5 5
9 7 5 7 6 5 4 4 5 5 6 8 10 12 13 13 13 13 13 13 13 13 14 15 14 14 13 13 12 13 13 12 12 10 10 9 7 5 6 5 4 5 4 4
7 3 5 2 3 3 4 5 5 6 7 8 9 11 12 12 12 13 14 14 14 14 15 15 14 14 13 13 12 12 11 11 9 8 8 7 7 5 2 2 3 2 3 4
6 4 4 2 3 4 4 3 3 4 6 8 8 10 11 12 12 13 14 14 14 14 14 14 14 14 13 13 12 12 11 10 9 8 8 7 6 5 3 2 2 3 4 3
6 5 6 6 5 5 4 3 3 4 5 6 8 9 10 11 12 13 14 14 14 14 14 13 13 14 13 13 13 12 11 10 9 7 7 6 6 5 4 3 2 3 4 5
10 10 8 4 5 6 5 5 5 5 5 6 7 8 10 12 13 13 13 13 13 13 13 13 14 14 14 13 13 12 9 7 7 7 6 5 5 4 3 4 3 2 3 4
9 10 9 8 7 7 7 6 6 5 5 6 7 8 10 11 12 12 12 12 12 13 13 12 13 14 14 13 13 10 7 8 9 7 6 5 4 4 3 3 3 3 3 3
9 11 12 12 10 9 7 6 5 5 5 5 7 8 10 11 11 12 12 12 11 11 10 11 13 14 13 12 12 8 7 6 7 6 5 5 5 4 3 3 3 3 3 4
9 9 8 8 8 8 7 6 5 4 4 4 6 7 9 10 11 12 13 13 12 11 10 12 14 15 13 12 11 8 7 6 5 5 5 5 5 4 3 3 3 3 2 4
6 7 7 7 6 6 6 5 4 4 3 4 5 7 8 9 10 11 12 12 11 11 13 14 16 14 13 13 13 8 7 6 5 4 4 3 3 4 4 3 3 3 2 2
4 6 7 8 8 7 7 6 5 5 4 4 5 6 7 8 9 10 11 10 7 9 12 14 14 12 12 12 15 8 7 6 5 4 4 4 4 3 3 3 2 2 2 2
5 6 8 8 8 8 7 6 6 6 5 5 5 6 7 8 9 9 9 9 9 10 13 11 9 10 11 13 14 7 6 5 5 4 3 3 3 3 3 3 2 2 2 2
7 6 8 8 8 8 7 7 6 6 6 5 5 5 6 7 8 8 8 6 8 10 10 8 8 12 16 16 8 7 6 6 4 4 3 3 3 3 3 3 3 2 2 3
8 7 7 8 9 8 8 8 8 7 7 6 5 5 5 6 6 7 7 6 8 11 10 7 11 16 20 10 7 6 6 6 5 4 3 3 3 3 3 4 3 3 3 4
10 9 8 8 9 9 10 9 8 7 7 7 5 4 4 5 4 4 5 4 5 8 8 6 10 14 14 7 7 7 6 6 5 4 4 3 3 4 4 4 4 5 5 6
11 10 9 9 10 10 9 9 9 9 9 7 6 5 5 3 4 4 5 6 6 7 8 6 6 11 8 7 7 7 6 6 8 6 4 4 3 3 4 4 5 5 5 6
12 10 9 9 9 8 8 8 8 7 7 7 6 5 4 2 2 3 3 5 7 6 6 6 7 7 6 6 7 7 7 6 6 6 6 5 5 5 5 5 6 5 5 6
13 11 8 9 9 9 9 8 8 8 8 7 6 5 4 3 2 2 3 4 5 5 6 5 5 6 6 6 6 6 6 6 6 6 6 5 4 4 5 5 5 5 5 6
Wind_Direction
25 4 298 283 286 331 347 343 325 328 321 333 346 336 327 320 320 319 319 320 320 318 317 315 313 312 309 308 308 307 303 299 297 296 294 291 288 285 281 275 268 260 254 248
239 222 267 256 243 263 307 321 320 315 325 360 335 317 318 322 322 320 321 322 321 319 317 315 314 311 310 309 308 305 301 299 299 298 294 290 287 284 280 276 272 267 260 252
299 240 269 253 220 246 302 328 322 318 330 335 323 324 325 321 319 321 323 322 320 319 316 315 312 313 310 308 306 303 300 298 298 296 294 292 290 288 283 279 273 267 261 253
296 274 276 59 93 281 303 313 318 313 322 330 324 323 312 310 322 323 320 319 319 317 316 315 316 315 312 309 306 304 302 302 303 302 298 296 293 288 285 280 274 270 263 256
287 289 290 141 170 276 309 310 327 325 326 325 328 313 310 15 338 322 319 319 317 317 316 317 316 316 314 310 308 307 306 307 307 306 302 298 293 289 287 281 274 266 261 255
274 294 302 86 115 81 284 293 40 328 323 326 324 315 338 348 331 325 323 320 319 317 315 316 319 318 313 310 309 308 310 309 306 302 299 296 293 290 286 279 273 268 260 253
274 281 292 107 129 221 291 356 354 330 325 321 324 315 318 322 325 323 321 320 319 317 317 320 319 315 309 309 309 310 310 306 304 301 298 295 293 290 284 278 272 268 263 254
272 276 328 128 173 284 335 337 323 323 321 320 315 313 316 320 322 322 321 321 322 320 320 319 316 313 310 310 310 310 308 306 304 304 303 302 298 293 286 280 274 269 260 250
290 318 86 172 239 318 317 304 315 316 320 320 315 317 321 321 322 323 322 322 323 323 319 317 318 317 312 311 312 310 307 306 305 305 306 305 301 298 294 282 272 270 260 248
264 262 221 219 237 250 259 281 302 308 313 315 316 319 321 323 323 323 322 323 326 323 319 319 320 319 314 311 312 310 308 307 307 308 308 309 306 303 301 294 286 278 273 260
258 266 250 225 231 246 242 254 275 292 307 314 317 318 322 321 323 323 322 324 324 321 318 318 319 318 316 316 315 311 309 308 310 311 312 311 313 318 317 323 329 308 300 293
277 260 238 210 157 200 225 242 267 292 304 313 317 318 320 321 323 321 321 323 323 323 321 320 320 319 319 321 319 313 310 312 313 314 316 319 323 331 17 342 1 334 313 315
265 245 233 158 169 192 220 239 260 281 302 311 316 319 320 321 321 322 322 326 328 325 321 320 321 321 323 326 323 317 312 313 313 316 322 329 335 338 351 71 100 66 36 19
228 218 218 215 207 195 214 226 255 275 293 306 315 319 320 321 322 324 327 328 327 323 321 325 325 325 328 327 322 318 316 313 311 318 330 338 346 350 357 9 49 88 79 62
218 216 226 201 191 187 203 220 247 270 296 307 314 320 325 325 324 324 326 327 327 324 327 329 327 328 330 325 322 320 320 320 322 325 335 348 352 359 15 31 51 70 96 92
221 212 214 207 207 204 209 224 254 284 300 309 316 325 327 325 322 324 330 332 330 327 328 328 328 330 327 323 323 321 321 319 314 321 339 353 1 10 28 40 59 72 86 96
221 210 210 214 213 212 217 228 253 277 291 301 317 323 324 326 326 331 333 335 331 324 329 335 333 329 325 325 327 323 321 321 309 318 353 2 8 17 30 38 47 60 76 74
234 230 217 211 206 201 205 214 230 250 273 296 307 317 326 329 330 332 331 331 328 329 345 345 337 328 327 332 331 323 323 330 336 348 1 9 6 17 33 42 46 53 93 124
232 218 197 186 183 186 192 203 218 233 249 276 299 315 322 327 330 329 329 327 329 336 345 342 333 328 333 337 333 321 329 338 346 358 5 6 356 31 39 44 44 42 54 80
239 214 197 186 182 185 189 196 208 218 233 259 286 304 318 330 331 330 329 324 346 350 336 332 329 333 335 336 330 325 337 347 354 4 12 18 29 36 37 35 38 39 47 62
274 231 213 204 197 196 199 202 212 221 228 245 271 297 315 323 328 330 327 329 350 355 335 323 329 342 338 327 313 328 350 356 358 8 25 34 44 46 42 36 43 47 51 65
308 268 239 224 212 209 205 208 216 226 231 239 257 284 303 314 325 328 328 339 340 356 334 332 347 344 333 320 325 350 358 359 4 14 28 32 42 48 42 40 49 57 73 80
314 290 262 242 228 220 212 214 217 222 230 237 248 271 297 316 322 323 328 353 344 345 326 342 347 336 328 325 342 351 358 2 2 13 23 32 47 50 48 49 58 63 69 84
313 297 276 257 242 230 222 219 217 218 225 232 235 247 274 291 302 327 339 346 348 334 326 353 343 333 325 337 348 351 356 359 357 5 16 26 46 54 54 54 57 64 68 76
309 298 280 260 244 235 229 225 220 215 220 224 226 218 237 273 309 330 332 336 348 332 329 348 347 334 340 354 352 350 354 359 349 344 6 10 22 48 55 53 54 60 62 65
298 288 281 266 258 251 234 220 216 211 213 216 217 214 220 232 272 298 317 334 345 338 332 343 350 348 353 354 354 350 349 347 345 348 3 2 15 28 35 36 47 52 62 68
283 278 268 261 253 243 238 228 223 218 212 212 214 204 206 216 242 320 334 340 348 349 348 348 351 352 351 354 357 354 349 349 348 348 353 358 4 15 24 19 26 37 45 59